Find Aether-9

NORAD ID: 67380 Int'l Des: 2026-004 Owner: KEPLER Country: CA Constellation: kepler-communications-gen2 operational
LEOCIRCULARRETROGRADESSO

当前视图

正在加载3D地球...

About Aether-9

Aether-9 (NORAD 67380) is a kepler-communications-gen2 constellation satellite launched Jan 11, 2026 by KEPLER of CA. It operates in LEO, CIRCULAR, RETROGRADE, SSO orbit with a mass of 300.00 kg.

关于 Aether-9

正在加载描述...

即将过境

Passes for default location (London). Set your location on the main map for personalized predictions.

高度历史

Loading altitude history...

两行轨道根数

1 67380U 26004T 26195.60120648 .00000298 00000-0 39929-4 0 9991
2 67380 97.8016 193.6153 0003134 105.3734 254.7828 14.86320360 27355
Epoch: Jul 14, 2026 • Age: 7 hours

当前状态

高度 619.4 km
远地点 / 近地点 N/A
速度 7.55 km/s
星下点 -25.46°S, 110.23°E
发射日期 Jan 11, 2026
运行时间 0.5 years
类型 other

技术详情

分类 Payload
质量 300.00 kg
干质量 300.00 kg
总质量 300.00 kg
长度 1.00 m
直径 1.50 m
跨度 6.00 m
形状 Box+2 pan
制造商 KEPLER
平台类型 Kepler Gen2B
阶段状态 In Orbit
所有者/国家 KEPLER/CA

Most Searched